#timestamp,LO_Frequency,Hit,StdDev 
1502629215.0,286046999.7,N,1.2
1502629215.9,286046999.7,N,1.3
1502629235.8,286047002.4,N,1.3
1502629255.6,286047001.9,N,1.2
1502629275.5,286047001.9,N,1.2
1502629295.3,286047001.8,N,1.2
1502629315.1,286047003.2,N,1.2
1502629335.9,286047001.4,N,1.2
1502629355.7,286047003.7,Y,0.0
1502629375.6,286047002.1,P,0.3
1502629395.4,286047002.1,P,0.3
1502629415.2,286047002.1,P,0.2
1502629435.1,286047002.0,Y,0.0
1502629436.0,286047002.0,P,0.0
1502629455.8,286046998.3,P,1.7
1502629475.7,286047001.2,N,1.5
1502629495.5,286047000.7,N,1.4
1502629515.3,286047000.8,N,1.2
1502629535.2,286046998.2,N,1.5
1502629555.0,286046998.3,N,1.5
1502629555.9,286046998.3,N,1.6
1502629575.8,286047000.9,N,1.5
1502629595.6,286047000.9,N,1.5
1502629615.4,286047000.2,N,1.4
1502629635.3,286047000.2,N,1.4
1502629655.1,286047000.4,N,1.3
1502629675.8,286047000.2,N,1.3
1502629695.7,286047000.3,N,1.2
1502629715.5,286047000.0,N,1.2
1502629735.4,286047000.9,N,1.2
1502629755.2,286046998.2,N,1.2
1502629775.0,286047000.5,N,1.2
1502629775.9,286047000.5,N,1.2
1502629795.8,286047000.8,N,1.1
1502629815.6,286047000.3,N,1.1
1502629835.5,286047000.4,N,1.1
1502629855.3,286046999.7,N,1.1
1502629875.1,286047002.7,N,1.2
1502629895.9,286047000.1,N,1.1
1502629915.7,286047000.0,N,1.1
1502629935.6,286047002.8,N,1.2
1502629955.4,286046999.8,N,1.2
1502629975.2,286047001.0,N,1.2
1502629995.1,286047002.2,N,1.2
1502629996.0,286047002.2,N,1.1
1502630015.8,286046999.9,N,1.1
1502630035.7,286047002.7,N,1.2
1502630055.5,286047000.3,N,1.2
1502630075.3,286047000.9,N,1.1
1502630095.2,286047000.5,N,1.1
1502630115.0,286047001.0,N,1.0
1502630115.9,286047001.0,N,1.0
1502630135.8,286047000.0,N,1.0
1502630155.6,286046999.7,N,1.0
1502630175.4,286047000.2,N,1.0
1502630195.3,286047000.1,N,1.0
1502630215.1,286047002.3,N,1.0
1502630235.8,286047000.2,N,1.0
1502630255.7,286047000.1,N,1.0
1502630275.5,286047000.1,N,1.0
1502630295.4,286047000.1,N,0.9
1502630315.2,286047000.8,N,0.9
1502630335.0,286047000.7,N,0.9
1502630335.9,286047000.7,N,0.9
1502630355.8,286047001.0,N,0.9
1502630375.6,286046998.6,N,1.0
1502630395.5,286046998.7,N,1.1
1502630415.3,286047000.8,N,1.0
1502630435.1,286046998.1,N,1.1
1502630455.9,286047001.1,N,1.1
1502630475.7,286046998.1,N,1.1
1502630495.5,286047000.0,N,1.1
1502630515.4,286046998.2,N,1.2
1502630535.2,286046998.7,N,1.1
1502630555.1,286046999.5,N,1.1
1502630556.0,286046999.5,N,1.1
1502630575.8,286046999.1,N,1.0
1502630595.6,286046998.8,N,1.0
1502630615.5,286046999.5,N,1.0
1502630635.3,286046999.6,N,1.0
1502630655.2,286046996.6,Y,0.0
1502630675.9,286046996.9,P,1.5
1502630695.7,286046997.7,N,1.3
1502630715.6,286046997.7,N,1.1
1502630735.4,286046997.8,N,1.0
1502630755.3,286046995.0,Y,0.0
1502630775.1,286046999.2,P,0.6
1502630776.0,286046999.2,N,0.6
1502630795.8,286046999.2,N,0.5
1502630815.7,286046996.7,Y,0.0
1502630835.5,286046999.0,P,0.1
1502630855.4,286046998.7,P,0.1
1502630875.2,286046996.5,P,1.0
1502630895.0,286046999.4,N,1.0
1502630895.9,286046999.4,N,1.0
1502630915.8,286046996.9,Y,0.0
1502630935.6,286047001.2,P,1.3
1502630955.5,286046999.4,N,1.1
1502630975.3,286046999.6,N,0.9
1502630995.1,286046998.6,N,0.9
1502631015.9,286046999.1,N,0.9
1502631035.7,286046999.2,N,0.8
1502631055.6,286046996.8,Y,0.0
1502631075.4,286046997.0,P,1.2
1502631095.2,286046997.2,N,1.1
1502631115.1,286046997.7,N,0.9
1502631116.0,286046997.7,N,0.8
1502631135.8,286046995.0,Y,0.0
1502631155.7,286046999.3,P,0.8
1502631175.5,286046999.3,N,0.7
1502631195.3,286046999.2,N,0.6
1502631215.2,286046999.2,N,0.6
1502631235.0,286046996.6,Y,0.0
1502631235.9,286046996.6,P,1.2
1502631255.8,286047001.2,N,1.9
1502631275.6,286046998.7,N,1.6
1502631295.4,286047000.7,N,1.6
1502631315.3,286047000.8,N,1.6
1502631335.1,286047000.5,N,1.5
1502631355.9,286047000.3,N,1.4
1502631375.7,286047001.0,N,1.4
1502631395.5,286046998.3,N,1.4
1502631415.4,286046998.1,N,1.4
1502631435.2,286046998.1,N,1.4
1502631455.1,286046999.1,N,1.4
1502631456.0,286046999.1,N,1.3
1502631475.8,286046999.1,N,1.3
1502631495.6,286046999.1,N,1.2
1502631515.5,286046999.3,N,1.2
1502631535.3,286046999.6,N,1.2
1502631555.2,286046996.8,N,1.3
1502631575.9,286046996.7,N,1.4
1502631595.7,286046996.6,N,1.4
1502631615.6,286046999.1,N,1.4
1502631635.4,286046997.4,N,1.4
1502631655.3,286046996.9,N,1.4
1502631675.1,286046997.0,N,1.5
1502631676.0,286046997.0,N,1.5
1502631695.8,286046996.6,N,1.5
1502631715.7,286046996.5,N,1.5
1502631735.5,286046997.8,N,1.5
1502631755.3,286046997.5,N,1.5
1502631775.2,286046996.9,N,1.5
1502631795.0,286046997.7,N,1.5
1502631795.9,286046997.7,N,1.4
1502631815.8,286046997.0,N,1.4
1502631835.6,286046999.2,N,1.3
1502631855.4,286046997.2,N,1.3
1502631875.3,286046999.6,N,1.2
1502631895.1,286046997.2,N,1.2
1502631915.9,286046999.3,N,1.0
1502631935.7,286046999.4,N,1.1
1502631955.5,286046999.5,N,1.1
1502631975.4,286046999.3,N,1.1
1502631995.2,286046998.9,N,1.1
1502632015.1,286046999.5,N,1.1
1502632016.0,286046999.5,N,1.2
1502632035.8,286046999.4,N,1.2
1502632055.6,286046996.8,N,1.2
1502632075.5,286046999.0,N,1.1
1502632095.3,286046999.0,N,1.1
1502632115.2,286046999.6,N,1.1
1502632135.9,286046999.5,N,1.1
1502632155.7,286046998.4,N,1.1
1502632175.6,286047000.8,N,1.2
1502632195.4,286047000.8,N,1.3
1502632215.3,286046998.2,N,1.2
1502632235.1,286047000.8,N,1.3
1502632236.0,286047000.8,N,1.3
1502632255.8,286046998.6,N,1.2
1502632275.7,286047001.2,N,1.2
1502632295.5,286046998.2,N,1.2
1502632315.3,286046998.2,N,1.2
1502632335.2,286046998.8,N,1.1
1502632355.0,286047000.7,N,1.2
1502632355.9,286047000.7,N,1.1
1502632375.8,286047000.3,N,1.1
1502632395.6,286047000.6,N,1.1
1502632415.4,286047000.6,N,1.1
1502632435.3,286046999.9,N,1.0
1502632455.1,286047000.6,N,1.0
1502632475.9,286047000.4,N,1.1
1502632495.7,286046999.7,N,1.1
1502632515.5,286047002.8,N,1.2
1502632535.4,286047001.7,N,1.2
1502632555.2,286047002.3,N,1.3
1502632575.1,286047002.2,N,1.4
1502632576.0,286047002.2,N,1.4
1502632595.8,286047001.9,N,1.3
1502632615.6,286047001.8,N,1.3
1502632635.5,286047001.8,N,1.3
1502632655.3,286047002.5,N,1.4
1502632675.1,286047001.6,N,1.3
1502632695.9,286047002.1,N,1.3
1502632715.7,286047001.9,N,1.3
1502632735.6,286047003.9,N,1.4
1502632755.4,286047003.3,N,1.4
1502632775.2,286047003.0,N,1.4
1502632795.1,286047005.5,Y,0.0
1502632796.0,286047005.5,P,2.2
